Regional Weather Roundup
Issued by NWS Northern Indiana

Home | Current Version | Previous Version | Text Only | Print | Product List | Glossary On
Versions: 1 2 3 4 5 6 7 8 9 10 11 12 13 14 15 16 17 18 19 20 21 22 23 24 25 26 27 28 29 30 31 32 33 34 35 36 37 38 39 40 41 42 43 44 45 46 47 48 49 50
682
ASUS43 KIWX 092200
RWRIWX

KIWX WEATHER ROUNDUP
NATIONAL WEATHER SERVICE NORTHERN INDIANA
500 PM EST TUE FEB 09 2016

NOTE: "FAIR" INDICATES FEW OR NO CLOUDS BELOW 12,000 FEET WITH NO
SIGNIFICANT WEATHER AND/OR OBSTRUCTIONS TO VISIBILITY.

* THESE STATIONS ARE NOT UNDER NWS QUALITY CONTROL. THEY ALSO MAY NOT
  REPORT WEATHER SUCH AS PRECIPITATION OR FOG.

INZ001>027-092300-
NORTHERN INDIANA

CITY           SKY/WX    TMP DP  RH WIND       PRES   REMARKS
GARY*          CLOUDY    19   9  63 W14G25    29.88  WCI   6
VALPARAISO     LGT SNOW  19  14  81 MISG      29.85R
SOUTH BEND     LGT SNOW  20  16  84 NW14      29.81R FOG     WCI   7
ELKHART*       FLURRIES  25  16  68 W13       29.79R WCI  13
GOSHEN         LGT SNOW  23  17  78 W17       29.78R WCI   9
MONTICELLO*    FLURRIES  19   9  64 W16       29.86R WCI   4
ANGOLA*        CLOUDY    25  19  80 NW14      29.71R WCI  13
FORT WAYNE     FLURRIES  34  19  54 W14       29.77R WCI  25

$$
INZ028>050-092300-
CENTRAL INDIANA

CITY           SKY/WX    TMP DP  RH WIND       PRES   REMARKS
LAFAYETTE      LGT SNOW  18  12  77 NW15      29.89R WCI   4
KOKOMO*        CLOUDY    19  14  79 NW17      29.83R WCI   4
MUNCIE*        LGT SNOW  22  16  78 W15       29.81R WCI   9
INDIANAPOLIS   FLURRIES  21  12  68 W18G26    29.86R WCI   6

$$
MIZ043>046-050>051-056>058-064>065-071>073-077>080-092300-
SOUTHWEST LOWER MICHIGAN

CITY           SKY/WX    TMP DP  RH WIND       PRES   REMARKS
BATTLE CREEK   FLURRIES  25  17  72 NW16      29.71R WCI  12
BENTON HARBOR  LGT SNOW  23  17  78 NW14G24   29.81R VSB 1   WCI  11
COLDWATER*     FLURRIES  26  20  77 W13G20    29.71R WCI  15
HILLSDALE*     CLOUDY    25  19  76 W15       29.67R WCI  13
HOLLAND        SNOW      24  21  88 NW16G22   29.76R VSB 1/4 WCI  11
GRAND RAPIDS   FLURRIES  26  18  71 W20       29.72R WCI  12
KALAMAZOO      FLURRIES  25  17  72 W17G24    29.73R WCI  12
STURGIS*       LGT SNOW  24  19  80 W8G18     29.73R WCI  15
THREE RIVERS*  LGT SNOW  25  21  82 W14       29.75R WCI  14

$$
OHZ001>008-015>018-024>025-092300-
NORTHWEST OHIO

CITY           SKY/WX    TMP DP  RH WIND       PRES   REMARKS
DEFIANCE       CLOUDY    29  19  66 NW12      29.72R WCI  19
FINDLAY        CLOUDY    30  20  66 W23       29.69R WCI  17
TOLEDO EXPRESS CLOUDY    28  19  69 W17G26    29.68R WCI  16
TOLEDO METCALF CLOUDY    29  20  69 W23       29.68R WCI  15
LIMA           CLOUDY    25  21  85 W20G26    29.71R WCI  11

$$
AND FOR LAKE MICHIGAN COASTAL AND OPEN LAKE BUOY OBSERVATIONS

STATION/POSITION TEMP    WIND        PRES    VSBY  WAVE
                 AIR SEA DIR/SP/G                  HT/PER
                 (F)     (DEG/KT/KT) (MB)    (MI)  (FT/S)
CALUMET HARBOR    18     310/  6/ 16 1010.5R
MICHIGAN CITY     20     270/ 23/ 24   N/A
BURNS HARBOR      20     320/ 13/ 19 1011.2R
SAINT JOSEPH      24     280/ 17/ 23 1009.8R

$$
&&




USA.gov is the U.S. government's official web portal to all federal, state and local government web resources and services.